Weather in Rauha

Finland     61°10′00″N   28°40′42″E
temp.,
°C
wind,
m/s
gust,
m/s
humid.,
%
clouds,
%
prec.,
mm/h
press.,
hPa
HPBL,
m
13 june, sun
sun1300:00+13ese51096100 0.3 1001177
03:00+12se3697100 0.4 100093
06:00+13sse249798 0.3 1000101
09:00+15ssw128860 0.5 1000210
12:00+14w3487100 1.7 1001272
15:00+13wnw4694100 2.8 1003197
18:00+11nnw71495100 2.9 1006561
21:00+11nnw51194100 6.4 1008434
14 june, mon
mon1400:00+10nw3594100 0.0 101094
03:00+10nw47924 0.0 1012111
06:00+10nw478798 0.0 1013176
09:00+12wnw467099 0.0 1015384
12:00+13wnw3656100 0.0 1016533
15:00+14wsw144999 0.0 1015541
18:00+16ssw254989 0.0 1013638
21:00+14ssw51064100 0.0 1012241
15 june, tue
tue1500:00+11s51270100 0.0 1011221
03:00+12s61570100 0.0 1009359
06:00+13ssw71372100 0.0 1006472
09:00+12ssw61296100 1.2 1006451
12:00+15sw59749 0.3 1006752
15:00+16nw585346 0.5 1006888
18:00+15wnw595782 0.0 1007766
21:00+14w510635 0.0 1008282
16 june, wed
wed1600:00+11w49741 0.0 1010151
03:00+11wnw5107680 0.0 1012344
06:00+10w610800 0.0 1014455
09:00+11wnw58745 0.0 1015547
12:00+13wnw486391 0.0 1017709
15:00+15wnw48485 0.0 1018920
18:00+16wnw484614 0.0 1018839
21:00+14w34615 0.0 101963
17 june, thu
thu1700:00+12wsw33675 0.0 102025
03:00+11sw227650 0.0 102111
06:00+12sw2378100 0.0 102267
09:00+14sw356669 0.0 1023284
12:00+17sw365185 0.0 1023587
15:00+19sw58465 0.0 1022724
18:00+19ssw59455 0.0 1022524
21:00+17ssw5106167 0.0 1022216